Change the Weather History Date:

Saturday, January 5, 2013

  Actual Average Record
Temperature  
Mean Temperature 49 °F -  
Max Temperature 62 °F 59 °F 68 °F (1997)
Min Temperature 36 °F 36 °F 26 °F (2009)
Degree Days  
Heating Degree Days 16    
Moisture  
Dew Point 36 °F    
Average Humidity 65    
Maximum Humidity 87    
Minimum Humidity 34    
Precipitation  
Precipitation 0.00 in - - ()
Sea Level Pressure  
Sea Level Pressure 29.93 in    
Wind  
Wind Speed 6 mph ()    
Max Wind Speed 16 mph    
Max Gust Speed -    
Visibility 6.1 miles    
Events      
Averages and records for this station are not official NWS values.
T = Trace of Precipitation, MM = Missing Value Source: Averaged Metar Reports

Daily Weather History Graph

Daily Weather History Graph

Search for Another Location

Airport or City:

Trip Planner

Search our weather history database for the weather conditions in past years. The results will help you decide how hot, cold, wet, or windy it might be!

Date:

Astronomy

Jan. 05, 2013 Rise Set
Actual Time 7:30 AM AST 5:42 PM AST
Civil Twilight 7:04 AM AST 6:08 PM AST
Nautical Twilight 6:33 AM AST 6:38 PM AST
Astronomical Twilight 6:04 AM AST 7:08 PM AST
Moon 12:28 AM AST (1/5) 12:06 PM AST (1/5)
Length of Visible Light 11h 04m
Length of Day
10h 11m
Waning Gibbous, 48% of the Moon is Illuminated
Jan 5
Waning Gibbous
Jan 11
New
Jan 19
First Quarter
Jan 27
Full
Feb 3
Last Quarter

Hourly Weather History & Observations

Time (AST) Temp. Windchill Dew Point Humidity Pressure Visibility Wind Dir Wind Speed Gust Speed Precip Events Conditions
12:00 AM 44 °F - 32 °F 52% 30.01 in 6 mi West 6.9 mph - -  
12:00 AM 44.6 °F 40.7 °F 32.0 °F 61% 29.98 in - West 6.9 mph - N/A   Clear
1:00 AM 42.8 °F 40.1 °F 32.0 °F 66% 29.98 in - West 4.6 mph - N/A   Clear
2:00 AM 41.0 °F 36.4 °F 32.0 °F 70% 29.98 in - West 6.9 mph - N/A   Clear
3:00 AM 40 °F - 32 °F 64% 29.97 in 6 mi WNW 9.2 mph - -  
3:00 AM 39.2 °F 33.0 °F 32.0 °F 75% 29.95 in - WNW 9.2 mph - N/A   Clear
4:00 AM 39.2 °F 33.0 °F 32.0 °F 75% 29.95 in - West 9.2 mph - N/A   Clear
5:00 AM 37.4 °F 33.8 °F 32.0 °F 81% 29.95 in - WSW 4.6 mph - N/A   Clear
6:00 AM 41 °F - 34 °F 67% 29.95 in 6 mi West 4.6 mph - -  
6:00 AM 41.0 °F 38.0 °F 33.8 °F 76% 29.92 in - West 4.6 mph - N/A   Clear
7:00 AM 39.2 °F 35.9 °F 33.8 °F 81% 29.95 in - WSW 4.6 mph - N/A   Clear
8:00 AM 35.6 °F 31.7 °F 32.0 °F 87% 29.95 in 6.2 mi East 4.6 mph - N/A   Scattered Clouds
9:00 AM 38 °F - 32 °F 71% 29.99 in 6 mi East 2.3 mph - -   Partly Cloudy
9:00 AM 37.4 °F - 32.0 °F 81% 29.95 in - East 2.3 mph - N/A   Clear
10:00 AM 42.8 °F 40.1 °F 33.8 °F 70% 29.98 in - East 4.6 mph - N/A   Clear
11:00 AM 46.4 °F 44.3 °F 37.4 °F 71% 29.95 in 6.2 mi NE 4.6 mph - N/A   Mostly Cloudy
12:00 PM 51 °F - 43 °F 65% 29.94 in 6 mi West 2.3 mph - -   Mostly Cloudy
12:00 PM 50.0 °F - 42.8 °F 76% 29.92 in 6.2 mi West 2.3 mph - N/A   Mostly Cloudy
1:00 PM 55.4 °F - 44.6 °F 67% 29.92 in 6.2 mi West 9.2 mph - N/A   Mostly Cloudy
2:00 PM 59.0 °F - 39.2 °F 48% 29.86 in 6.2 mi West 13.8 mph - N/A   Scattered Clouds
3:00 PM 60 °F - 39 °F 34% 29.88 in 6 mi WSW 9.2 mph - -   Mostly Cloudy
3:00 PM 60.8 °F - 39.2 °F 45% 29.86 in 6.2 mi WSW 9.2 mph - N/A   Mostly Cloudy
4:00 PM 60.8 °F - 39.2 °F 45% 29.86 in 6.2 mi WSW 6.9 mph - N/A   Scattered Clouds
5:00 PM 57.2 °F - 39.2 °F 51% 29.86 in 6.2 mi West 13.8 mph - N/A   Scattered Clouds
6:00 PM 54 °F - 39 °F 46% 29.91 in 6 mi WNW 16.1 mph - -   Partly Cloudy
6:00 PM 53.6 °F - 39.2 °F 58% 29.89 in 6.2 mi WNW 16.1 mph - N/A   Scattered Clouds
7:00 PM 48.2 °F - 39.2 °F 71% 29.92 in 6.2 mi South 13.8 mph - N/A   Partly Cloudy
8:00 PM 48.2 °F - 39.2 °F 71% 29.92 in 6.2 mi WNW 9.2 mph - N/A   Partly Cloudy
9:00 PM 51 °F - 39 °F 54% 29.95 in 6 mi West 6.9 mph - -  
9:00 PM 50.0 °F - 39.2 °F 66% 29.92 in - West 6.9 mph - N/A   Clear
10:00 PM 50.0 °F - 39.2 °F 66% 29.92 in - West 6.9 mph - N/A   Clear
11:00 PM 48.2 °F - 39.2 °F 71% 29.92 in - West 9.2 mph - N/A   Clear